Find Starlink 3859

NORAD ID: 52470 Int'l Des: 2022-049 Owner: SPXS Country: US Constellation: starlink operational
LEOCIRCULAR

リアルタイム位置

3D地球を読み込み中...

Starlink 3859について

説明を読み込み中...

次回通過

Passes for default location (London). Set your location on the main map for personalized predictions.

高度履歴

Loading altitude history...

軌道要素

1 52470U 22049V 26123.15850344 -.00000208 00000-0 50487-5 0 9999
2 52470 53.2169 174.5995 0001225 89.5480 270.5653 15.08837032220470
Epoch: May 3, 2026 • Age: 4 hours

現在のステータス

高度 558.1 km
速度 7.58 km/s
衛星直下点 -50.69°S, 76.18°E
打ち上げ日 May 6, 2022
運用期間 3.9 years
タイプ internet

技術仕様

分類 Payload
質量 297.00 kg
乾燥質量 220.00 kg
総質量 297.00 kg
長さ 0.20 m
直径 2.80 m
スパン 9.00 m
形状 Box + pan
製造者 SPXS
バスタイプ Starlink
フェーズステータス In Orbit
所有者/国 SPXS/US

Most Searched